Powrót do katalogu

OPS 4682 DEB

AktywnyPO
NORAD 14515·DEBRIS·🇺🇸 United States

Wystrzelony Apr 3, 1965 z Vandenberg Space Force Base

Loading…

Następne Przeloty (najbliższe 24 godziny)

TLE

ŚwieżeSource: Space-Track

Epoka: Sep 13, 2026, 14:01 UTC

1 14515U 65027M   26256.58469970 -.00000195  00000-0 -69750-3 0  9992
2 14515  90.2516  10.0995 0030879 188.7687 171.2898 12.97426796595779

Śledź OPS 4682 DEB w czasie rzeczywistym z AllMySat

Download on the App Store